| time (UTC) | temp F | wind direction | speed MPH | gust MPH | rain 1hr in | rain 24hr in | rain mn in | humidity % | barometer mb |
| 20260502192750 | 80 | 153 | 7.0 | 18.0 | 0.00 | 0.00 | 0.00 | 25 | 1014.4 |
| 20260502191756 | 80 | 110 | 10.0 | 19.0 | 0.00 | 0.00 | 0.00 | 24 | 1014.8 |
| 20260502191259 | 79 | 123 | 11.0 | 19.0 | 0.00 | 0.00 | 0.00 | 25 | 1014.7 |
| 20260502190802 | 79 | 157 | 7.0 | 20.0 | 0.00 | 0.00 | 0.00 | 25 | 1014.8 |
| 20260502190305 | 79 | 108 | 12.0 | 20.0 | 0.00 | 0.00 | 0.00 | 24 | 1014.7 |
| 20260502185808 | 79 | 131 | 8.0 | 19.0 | 0.00 | 0.00 | 0.00 | 25 | 1014.8 |
| 20260502185311 | 79 | 136 | 8.0 | 20.0 | 0.00 | 0.00 | 0.00 | 23 | 1014.8 |
| 20260502184814 | 79 | 114 | 10.0 | 23.0 | 0.00 | 0.00 | 0.00 | 23 | 1014.9 |
| 20260502184317 | 79 | 120 | 15.0 | 23.0 | 0.00 | 0.00 | 0.00 | 23 | 1014.9 |
| 20260502183820 | 79 | 141 | 7.0 | 20.0 | 0.00 | 0.00 | 0.00 | 24 | 1014.8 |
| 20260502183323 | 79 | 124 | 14.0 | 22.0 | 0.00 | 0.00 | 0.00 | 24 | 1015.0 |
| 20260502182826 | 79 | 119 | 12.0 | 22.0 | 0.00 | 0.00 | 0.00 | 23 | 1015.0 |
| 20260502182329 | 79 | 125 | 14.0 | 22.0 | 0.00 | 0.00 | 0.00 | 23 | 1014.9 |
| 20260502181832 | 79 | 126 | 10.0 | 21.0 | 0.00 | 0.00 | 0.00 | 24 | 1015.0 |
| 20260502181335 | 78 | 131 | 8.0 | 21.0 | 0.00 | 0.00 | 0.00 | 25 | 1015.0 |
| 20260502180838 | 78 | 117 | 8.0 | 22.0 | 0.00 | 0.00 | 0.00 | 26 | 1015.1 |
| 20260502180341 | 78 | 135 | 10.0 | 22.0 | 0.00 | 0.00 | 0.00 | 25 | 1015.1 |
| 20260502170417 | 75 | 93 | 11.0 | 21.0 | 0.00 | 0.00 | 0.00 | 24 | 1015.3 |
| 20260502163932 | 74 | 104 | 9.0 | 17.0 | 0.00 | 0.00 | 0.00 | 27 | 1015.3 |
| 20260502163435 | 74 | 96 | 9.0 | 17.0 | 0.00 | 0.00 | 0.00 | 27 | 1015.5 |
| 20260502162938 | 74 | 90 | 5.0 | 13.0 | 0.00 | 0.00 | 0.00 | 28 | 1014.6 |
| 20260502162441 | 73 | 85 | 5.0 | 16.0 | 0.00 | 0.00 | 0.00 | 28 | 1014.5 |
| 20260502161944 | 73 | 91 | 10.0 | 18.0 | 0.00 | 0.00 | 0.00 | 26 | 1014.5 |
| 20260502161447 | 72 | 93 | 10.0 | 18.0 | 0.00 | 0.00 | 0.00 | 27 | 1014.5 |
| 20260502160950 | 72 | 93 | 11.0 | 19.0 | 0.00 | 0.00 | 0.00 | 26 | 1014.6 |
| 20260502160453 | 72 | 89 | 12.0 | 19.0 | 0.00 | 0.00 | 0.00 | 26 | 1014.5 |
| 20260502152020 | 70 | 89 | 9.0 | 14.0 | 0.00 | 0.00 | 0.00 | 30 | 1014.6 |
| 20260502151523 | 70 | 94 | 8.0 | 14.0 | 0.00 | 0.00 | 0.00 | 31 | 1014.6 |
| 20260502151026 | 69 | 85 | 6.0 | 13.0 | 0.00 | 0.00 | 0.00 | 33 | 1014.5 |
| 20260502150529 | 69 | 83 | 8.0 | 14.0 | 0.00 | 0.00 | 0.00 | 32 | 1014.5 |
| 20260502121214 | 58 | 0 | 0.0 | 0.0 | 0.00 | 0.00 | 0.00 | 45 | 1013.3 |
| 20260502120717 | 58 | 0 | 0.0 | 0.0 | 0.00 | 0.00 | 0.00 | 45 | 1013.4 |
| 20260502114232 | 57 | 0 | 0.0 | 0.0 | 0.00 | 0.00 | 0.00 | 47 | 1013.3 |
| 20260502111747 | 58 | 0 | 0.0 | 0.0 | 0.00 | 0.00 | 0.00 | 46 | 1013.1 |
| 20260502111250 | 58 | 0 | 0.0 | 0.0 | 0.00 | 0.00 | 0.00 | 46 | 1013.1 |
| 20260502110753 | 59 | 0 | 0.0 | 1.0 | 0.00 | 0.00 | 0.00 | 45 | 1013.1 |
| 20260502110256 | 59 | 0 | 0.0 | 1.0 | 0.00 | 0.00 | 0.00 | 44 | 1013.1 |
| 20260502104805 | 59 | 0 | 0.0 | 2.0 | 0.00 | 0.00 | 0.00 | 45 | 1013.2 |
| 20260502104308 | 59 | 191 | 1.0 | 3.0 | 0.00 | 0.00 | 0.00 | 44 | 1013.2 |
| 20260502103811 | 59 | 191 | 1.0 | 3.0 | 0.00 | 0.00 | 0.00 | 43 | 1013.2 |
| 20260502103314 | 59 | 191 | 1.0 | 3.0 | 0.00 | 0.00 | 0.00 | 44 | 1013.1 |
| 20260502102320 | 59 | 0 | 0.0 | 2.0 | 0.00 | 0.00 | 0.00 | 45 | 1013.1 |
| 20260502090905 | 60 | 0 | 0.0 | 3.0 | 0.00 | 0.00 | 0.00 | 42 | 1013.3 |
| 20260502071514 | 62 | 280 | 4.0 | 6.0 | 0.00 | 0.00 | 0.00 | 38 | 1013.9 |
| 20260502071017 | 62 | 281 | 5.0 | 7.0 | 0.00 | 0.00 | 0.00 | 39 | 1014.0 |
| 20260502070520 | 62 | 280 | 4.0 | 7.0 | 0.00 | 0.00 | 0.00 | 39 | 1014.0 |
| 20260502070023 | 62 | 281 | 5.0 | 7.0 | 0.00 | 0.00 | 0.00 | 39 | 1014.0 |
| 20260502065526 | 62 | 282 | 5.0 | 7.0 | 0.00 | 0.00 | 0.00 | 39 | 1014.0 |
| 20260502065123 | 62 | 277 | 5.0 | 6.0 | 0.00 | 0.00 | 0.00 | 39 | 1014.0 |
| 20260502065029 | 62 | 277 | 5.0 | 6.0 | 0.00 | 0.00 | 0.00 | 39 | 1014.0 |
| 20260502064532 | 62 | 276 | 4.0 | 6.0 | 0.00 | 0.00 | 0.00 | 39 | 1013.9 |
| 20260502064035 | 62 | 277 | 4.0 | 7.0 | 0.00 | 0.00 | 0.00 | 40 | 1014.1 |
| 20260502063041 | 61 | 276 | 5.0 | 8.0 | 0.00 | 0.00 | 0.00 | 41 | 1014.1 |
| 20260502062544 | 61 | 277 | 6.0 | 8.0 | 0.00 | 0.00 | 0.00 | 42 | 1014.1 |
| 20260502061550 | 61 | 277 | 5.0 | 6.0 | 0.00 | 0.00 | 0.00 | 43 | 1014.0 |
| 20260502061124 | 61 | 280 | 4.0 | 6.0 | 0.00 | 0.00 | 0.00 | 44 | 1014.0 |
| 20260502061053 | 61 | 280 | 4.0 | 6.0 | 0.00 | 0.00 | 0.00 | 44 | 1014.0 |
| 20260502060059 | 61 | 282 | 5.0 | 7.0 | 0.00 | 0.00 | 0.00 | 45 | 1013.9 |
| 20260502055602 | 61 | 281 | 5.0 | 7.0 | 0.00 | 0.00 | 0.00 | 46 | 1013.9 |
| 20260502055105 | 61 | 279 | 5.0 | 7.0 | 0.00 | 0.00 | 0.00 | 47 | 1013.8 |
| 20260502054112 | 61 | 287 | 5.0 | 8.0 | 0.00 | 0.00 | 0.00 | 48 | |
| 20260502052620 | 61 | 288 | 6.0 | 9.0 | 0.00 | 0.00 | 0.00 | 51 | 1013.8 |
| 20260502050632 | 61 | 277 | 6.0 | 8.0 | 0.00 | 0.00 | 0.00 | 53 | 1013.9 |
| 20260502045141 | 60 | 281 | 6.0 | 8.0 | 0.00 | 0.00 | 0.00 | 57 | 1013.8 |
| 20260502042656 | 60 | 275 | 5.0 | 9.0 | 0.00 | 0.00 | 0.00 | 64 | 1013.8 |
| 20260502041205 | 60 | 278 | 6.0 | 10.0 | 0.00 | 0.00 | 0.00 | 69 | 1013.6 |
| 20260502040211 | 60 | 280 | 6.0 | 10.0 | 0.00 | 0.00 | 0.00 | 72 | 1013.6 |
| 20260502035714 | 60 | 289 | 6.0 | 10.0 | 0.00 | 0.00 | 0.00 | 73 | 1013.5 |
| 20260502035217 | 60 | 282 | 7.0 | 9.0 | 0.00 | 0.00 | 0.00 | 73 | 1013.5 |
| 20260502034720 | 60 | 282 | 6.0 | 9.0 | 0.00 | 0.00 | 0.00 | 74 | 1013.5 |
| 20260502033726 | 60 | 275 | 7.0 | 11.0 | 0.00 | 0.00 | 0.00 | 75 | 1013.3 |
| 20260502032815 | 59 | 269 | 6.0 | 10.0 | 0.00 | 0.00 | 0.00 | 76 | 1013.3 |
| 20260502032732 | 59 | 269 | 6.0 | 10.0 | 0.00 | 0.00 | 0.00 | 76 | 1013.3 |
| 20260502032235 | 59 | 284 | 5.0 | 10.0 | 0.00 | 0.00 | 0.00 | 77 | 1013.3 |
| 20260502031241 | 59 | 272 | 4.0 | 11.0 | 0.00 | 0.00 | 0.00 | 78 | 1013.2 |
| 20260502030744 | 59 | 251 | 6.0 | 11.0 | 0.00 | 0.00 | 0.00 | 78 | 1013.2 |
| 20260502030247 | 60 | 253 | 5.0 | 11.0 | 0.00 | 0.00 | 0.00 | 76 | 1013.1 |
| 20260502025750 | 60 | 268 | 7.0 | 14.0 | 0.00 | 0.00 | 0.00 | 75 | 1013.0 |
| 20260502024756 | 60 | 278 | 7.0 | 12.0 | 0.00 | 0.00 | 0.00 | 78 | 1012.8 |
| 20260502023402 | 61 | 264 | 7.0 | 13.0 | 0.00 | 0.00 | 0.00 | 75 | 1012.7 |
| 20260502023305 | 61 | 264 | 7.0 | 13.0 | 0.00 | 0.00 | 0.00 | 75 | 1012.7 |
| 20260502022808 | 61 | 274 | 5.0 | 9.0 | 0.00 | 0.00 | 0.00 | 75 | 1012.7 |
| 20260502022311 | 61 | 253 | 6.0 | 13.0 | 0.00 | 0.00 | 0.00 | 75 | 1012.7 |
| 20260502020820 | 63 | 241 | 12.0 | 16.0 | 0.00 | 0.00 | 0.00 | 71 | 1012.7 |
| 20260502020323 | 64 | 247 | 7.0 | 14.0 | 0.00 | 0.00 | 0.00 | 67 | 1012.7 |
| 20260502014832 | 65 | 258 | 10.0 | 14.0 | 0.00 | 0.00 | 0.00 | 66 | 1012.6 |
| 20260502014335 | 65 | 250 | 10.0 | 14.0 | 0.00 | 0.00 | 0.00 | 64 | 1012.6 |
| 20260502013838 | 65 | 242 | 10.0 | 14.0 | 0.00 | 0.00 | 0.00 | 63 | 1012.6 |
| 20260502011353 | 67 | 270 | 11.0 | 18.0 | 0.00 | 0.00 | 0.00 | 60 | 1012.7 |
| 20260502010856 | 68 | 271 | 12.0 | 18.0 | 0.00 | 0.00 | 0.00 | 61 | 1012.7 |
| 20260502005902 | 69 | 270 | 7.0 | 15.0 | 0.00 | 0.00 | 0.00 | 58 | 1012.8 |
| 20260502005405 | 69 | 263 | 9.0 | 18.0 | 0.00 | 0.00 | 0.00 | 57 | 1012.6 |
| 20260502003417 | 70 | 251 | 11.0 | 16.0 | 0.00 | 0.00 | 0.00 | 55 | 1012.8 |
| 20260502000932 | 71 | 260 | 9.0 | 17.0 | 0.00 | 0.00 | 0.00 | 52 | 1012.7 |
| 20260501235938 | 71 | 278 | 10.0 | 16.0 | 0.00 | 0.00 | 0.00 | 52 | 1012.0 |
| 20260501233950 | 71 | 271 | 9.0 | 19.0 | 0.00 | 0.00 | 0.00 | 47 | 1012.2 |
| 20260501233453 | 71 | 262 | 12.0 | 19.0 | 0.00 | 0.00 | 0.00 | 43 | 1012.1 |
| 20260501232956 | 71 | 287 | 10.0 | 18.0 | 0.00 | 0.00 | 0.00 | 44 | 1012.1 |
| 20260501232002 | 71 | 289 | 12.0 | 19.0 | 0.00 | 0.00 | 0.00 | 43 | 1012.1 |
| 20260501224523 | 72 | 267 | 13.0 | 19.0 | 0.00 | 0.00 | 0.00 | 48 | 1012.7 |
| 20260501222038 | 72 | 279 | 11.0 | 18.0 | 0.00 | 0.00 | 0.00 | 47 | 1012.7 |
| 20260501215056 | 73 | 276 | 11.0 | 18.0 | 0.00 | 0.00 | 0.00 | 43 | 1013.0 |
| 20260501210623 | 73 | 256 | 8.0 | 17.0 | 0.00 | 0.00 | 0.00 | 47 | 1013.4 |
| 20260501210126 | 72 | 267 | 9.0 | 17.0 | 0.00 | 0.00 | 0.00 | 44 | 1013.6 |
| 20260501205629 | 72 | 273 | 11.0 | 15.0 | 0.00 | 0.00 | 0.00 | 45 | 1013.4 |
| 20260501202647 | 72 | 286 | 7.0 | 16.0 | 0.00 | 0.00 | 0.00 | 42 | 1013.7 |
| 20260501202150 | 72 | 274 | 9.0 | 16.0 | 0.00 | 0.00 | 0.00 | 45 | 1013.6 |
| 20260501200659 | 72 | 255 | 9.0 | 16.0 | 0.00 | 0.00 | 0.00 | 47 | 1013.7 |
| 20260501200202 | 72 | 269 | 9.0 | 16.0 | 0.00 | 0.00 | 0.00 | 45 | 1013.7 |
| 20260501194214 | 72 | 305 | 10.0 | 17.0 | 0.00 | 0.00 | 0.00 | 46 | 1013.7 |